Location: Tucson
(32.2220°N, 110.9260°W)
Time: 22:40:07
(UTC-07:00)

Envisat - Visible Passes

Search period start: 18 February 2019 00:00
Search period end: 28 February 2019 00:00
Orbit: 764 x 766 km, 98.2° (Epoch: 18 February)

Date Brightness Start Highest point End Pass type
(mag) Time Alt. Az. Time Alt. Az. Time Alt. Az.
18 Feb 4.3 19:44:20 10° SSW 19:49:04 40° W 19:53:51 10° NNW visible
19 Feb 2.9 19:07:15 10° SSE 19:12:19 82° ENE 19:17:24 10° N visible
20 Feb 3.6 18:31:13 10° SE 18:35:44 33° ENE 18:40:15 10° N visible
20 Feb 5.4 20:10:53 10° SW 20:14:44 22° W 20:18:36 10° NW visible
21 Feb 3.8 19:32:55 10° S 19:37:51 53° W 19:42:48 10° NNW visible
22 Feb 3.0 18:56:09 10° SSE 19:01:08 63° ENE 19:06:09 10° N visible
22 Feb 6.2 20:39:05 10° WSW 20:40:29 11° W 20:41:52 10° WNW visible
23 Feb 5.0 19:59:09 10° SSW 20:03:28 28° W 20:07:48 10° NW visible
24 Feb 3.3 19:21:35 10° S 19:26:38 70° WSW 19:31:42 10° NNW visible
25 Feb 3.2 18:45:07 10° SSE 18:49:58 48° ENE 18:54:50 10° N visible
25 Feb 5.9 20:26:21 10° SW 20:29:10 15° W 20:32:00 10° WNW visible
26 Feb 4.6 19:47:34 10° SSW 19:52:12 36° W 19:56:52 10° NNW visible
27 Feb 3.0 19:10:21 10° SSE 19:15:25 90° NE 19:20:31 10° NNW visible
